295P/LINEAR (2002)

Japanese version
Home page
Updated on January 19, 2014

---------------------------------------------------------------------

* Profile

Designation 295P/2002 AR2
Discovery Date January 6, 2002
Magnitude 18.9 mag
Discoverer Lincoln Laboratory Near-Earth Asteroid Research project

* Orbital Elements

Epoch 2002 Jan. 6.0 TT = JDT 2452280.5
T 2002 Jan. 16.51746 TT                                 MPC
q   2.0644285            (2000.0)            P               Q
n   0.07918138     Peri.   73.66625     +0.15637128     -0.98647367
a   5.3709859      Node     7.84707     +0.71143251     +0.07796079
e   0.6156332      Incl.   21.10905     +0.68513634     +0.14419366
P  12.4
From 63 observations 2002 Jan. 6-2013 Dec. 26, mean residual 0".6.

* Finding Charts

* Magnitudes Graph

        m1 = 14.0 + 5 log d + 10.0 log r

---------------------------------------------------------------------

The orbital elements are calculated by Dr. Brian G. Marsden and printed on M.P.E.C. 2014-A73.
The charts are made with StellaNavigator Ver.2.0 for Windows (AstroArts / ASCII).
The magnitudes graphs are made with Comet for Windows.

---------------------------------------------------------------------

Copyright(C) Seiichi Yoshida (comet@aerith.net). All rights reserved.